Lumberton, NJ

12:14 AM EDT on August 29, 2016 (GMT -0400)
South Jersey Regional

Weather History for KVAY - October, 2012

Change the Weather History Date:

Monday, October 1, 2012

  Actual Average (KWRI) Record (KWRI)
Temperature  
Mean Temperature 60 °F -  
Max Temperature 71 °F 69 °F 80 °F (2002)
Min Temperature 48 °F 48 °F 41 °F (2005)
Degree Days  
Heating Degree Days 6    
Growing Degree Days 10 (Base 50)    
Moisture  
Dew Point 48 °F    
Average Humidity 69    
Maximum Humidity 96    
Minimum Humidity 38    
Precipitation  
Precipitation 0.00 in - - ()
Sea Level Pressure  
Sea Level Pressure 29.92 in    
Wind  
Wind Speed 2 mph (WSW)    
Max Wind Speed 10 mph    
Max Gust Speed 16 mph    
Visibility 9 miles    
Events Rain    
Averages and records for this station are not official NWS values.
T = Trace of Precipitation, MM = Missing Value Source: NWS Daily Summary

Daily Weather History Graph

Daily Weather History Graph

Search for Another Location

Airport or City:

Trip Planner

Search our weather history database for the weather conditions in past years. The results will help you decide how hot, cold, wet, or windy it might be!

Date:

Astronomy

Oct. 01, 2012 Rise Set
Actual Time 6:56 AM EDT 6:40 PM EDT
Civil Twilight 6:29 AM EDT 7:07 PM EDT
Nautical Twilight 5:57 AM EDT 7:39 PM EDT
Astronomical Twilight 5:26 AM EDT 8:10 PM EDT
Moon 7:16 PM EDT (10/1) 8:22 AM EDT (10/1)
Length of Visible Light 12h 38m
Length of Day
11h 44m
Full, 98% of the Moon is Illuminated
Oct 1
Full
Oct 8
Last Quarter
Oct 15
New
Oct 21
First Quarter
Oct 29
Full

Hourly Weather History & Observations

Time (EDT) Temp. Dew Point Humidity Pressure Visibility Wind Dir Wind Speed Gust Speed Precip Events Conditions
12:54 AM 53.1 °F 50.0 °F 89% 29.87 in 10.0 mi Calm Calm - N/A   Clear
1:54 AM 51.1 °F 48.9 °F 92% 29.87 in 10.0 mi Calm Calm - N/A   Clear
2:54 AM 51.1 °F 48.9 °F 92% 29.88 in 9.0 mi Calm Calm - N/A   Clear
3:54 AM 51.1 °F 48.0 °F 89% 29.86 in 8.0 mi Calm Calm - N/A   Clear
5:54 AM 48.0 °F 46.9 °F 96% 29.90 in 5.0 mi Calm Calm - N/A   Clear
6:54 AM 48.0 °F 46.0 °F 93% 29.90 in 4.0 mi Calm Calm - N/A   Clear
7:54 AM 53.1 °F 48.9 °F 86% 29.92 in 7.0 mi West 3.5 mph - N/A   Clear
8:54 AM 55.9 °F 48.9 °F 77% 29.94 in 10.0 mi WSW 4.6 mph - N/A   Clear
10:54 AM 63.0 °F 45.0 °F 52% 29.94 in 10.0 mi West 9.2 mph - N/A   Clear
11:54 AM 66.9 °F 45.0 °F 45% 29.93 in 10.0 mi WNW 8.1 mph - N/A   Clear
12:54 PM 69.1 °F 45.0 °F 42% 29.93 in 10.0 mi West 10.4 mph 16.1 mph N/A   Clear
1:54 PM 70.0 °F 44.1 °F 39% 29.91 in 10.0 mi WSW 10.4 mph - N/A   Clear
2:54 PM 71.1 °F 45.0 °F 39% 29.91 in 10.0 mi WSW 9.2 mph - N/A   Clear
3:54 PM 71.1 °F 44.1 °F 38% 29.91 in 10.0 mi SW 6.9 mph - N/A   Clear
4:54 PM 70.0 °F 43.0 °F 38% 29.91 in 10.0 mi SW 8.1 mph - N/A   Clear
6:54 PM 61.0 °F 50.0 °F 67% 29.95 in 10.0 mi Calm Calm - N/A   Clear
7:54 PM 61.0 °F 52.0 °F 72% 29.96 in 10.0 mi Calm Calm - N/A   Overcast
8:54 PM 62.1 °F 51.1 °F 67% 29.97 in 10.0 mi Calm Calm - N/A   Partly Cloudy
9:54 PM 61.0 °F 52.0 °F 72% 29.97 in 10.0 mi Calm Calm - N/A   Overcast
10:54 PM 61.0 °F 54.0 °F 78% 29.97 in 10.0 mi Calm Calm - N/A   Overcast
11:54 PM 61.0 °F 55.0 °F 81% 29.98 in 10.0 mi Calm Calm - 0.00 in Rain Light Rain